| time (UTC) | temp F | wind direction | speed MPH | gust MPH | rain 1hr in | rain 24hr in | rain mn in | humidity % | barometer mb |
| 20260507194540 | 82 | 245 | 3.0 | 10.0 | 0.00 | 0.00 | 0.00 | 78 | 1011.0 |
| 20260507193045 | 83 | 229 | 3.0 | 9.0 | 0.00 | 0.00 | 0.00 | 74 | 1011.4 |
| 20260507191544 | 83 | 250 | 3.0 | 11.0 | 0.00 | 0.00 | 0.00 | 76 | 1011.6 |
| 20260507190049 | 83 | 238 | 3.0 | 8.0 | 0.00 | 0.00 | 0.00 | 77 | 1011.7 |
| 20260507184539 | 82 | 249 | 5.0 | 10.0 | 0.00 | 0.00 | 0.00 | 77 | 1011.9 |
| 20260507183040 | 82 | 269 | 4.0 | 10.0 | 0.00 | 0.00 | 0.00 | 77 | 1012.2 |
| 20260507181538 | 82 | 217 | 4.0 | 12.0 | 0.00 | 0.00 | 0.00 | 77 | 1012.3 |
| 20260507180036 | 82 | 205 | 3.0 | 10.0 | 0.00 | 0.00 | 0.00 | 77 | 1012.2 |
| 20260507174553 | 82 | 268 | 4.0 | 12.0 | 0.00 | 0.00 | 0.00 | 78 | 1012.2 |
| 20260507173044 | 82 | 205 | 4.0 | 9.0 | 0.00 | 0.00 | 0.00 | 75 | 1012.4 |
| 20260507171552 | 82 | 225 | 4.0 | 11.0 | 0.00 | 0.00 | 0.00 | 77 | 1012.6 |
| 20260507170045 | 82 | 234 | 4.0 | 11.0 | 0.00 | 0.00 | 0.00 | 76 | 1012.7 |
| 20260507164546 | 81 | 0 | 5.0 | 11.0 | 0.00 | 0.00 | 0.00 | 76 | 1012.6 |
| 20260507163037 | 81 | 198 | 4.0 | 9.0 | 0.00 | 0.00 | 0.00 | 78 | 1012.9 |
| 20260507161551 | 81 | 232 | 5.0 | 10.0 | 0.00 | 0.00 | 0.00 | 77 | 1013.1 |
| 20260507160044 | 81 | 244 | 3.0 | 11.0 | 0.00 | 0.00 | 0.00 | 78 | 1013.1 |
| 20260507154543 | 82 | 253 | 3.0 | 8.0 | 0.00 | 0.00 | 0.00 | 78 | 1013.1 |
| 20260507153042 | 81 | 250 | 3.0 | 11.0 | 0.00 | 0.00 | 0.00 | 79 | 1013.2 |
| 20260507151537 | 81 | 231 | 2.0 | 10.0 | 0.00 | 0.00 | 0.00 | 80 | 1013.3 |
| 20260507150051 | 81 | 209 | 4.0 | 13.0 | 0.00 | 0.00 | 0.00 | 79 | 1013.1 |
| 20260507144541 | 80 | 189 | 5.0 | 12.0 | 0.00 | 0.00 | 0.00 | 78 | 1013.0 |
| 20260507143038 | 80 | 237 | 5.0 | 12.0 | 0.00 | 0.00 | 0.00 | 76 | 1012.8 |
| 20260507141537 | 80 | 279 | 3.0 | 8.0 | 0.00 | 0.00 | 0.00 | 78 | 1012.8 |
| 20260507140038 | 79 | 227 | 3.0 | 10.0 | 0.00 | 0.00 | 0.00 | 77 | 1012.7 |
| 20260507134542 | 79 | 232 | 3.0 | 9.0 | 0.00 | 0.00 | 0.00 | 83 | 1012.6 |
| 20260507133042 | 78 | 195 | 4.0 | 9.0 | 0.00 | 0.00 | 0.00 | 84 | 1012.5 |
| 20260507131541 | 77 | 17 | 2.0 | 9.0 | 0.00 | 0.00 | 0.00 | 87 | 1012.2 |
| 20260507130055 | 76 | 360 | 4.0 | 9.0 | 0.00 | 0.00 | 0.00 | 87 | 1012.2 |
| 20260507124536 | 76 | 360 | 3.0 | 9.0 | 0.00 | 0.00 | 0.00 | 89 | 1012.1 |
| 20260507123057 | 75 | 360 | 3.0 | 6.0 | 0.00 | 0.00 | 0.00 | 92 | 1012.0 |
| 20260507121550 | 74 | 0 | 1.0 | 6.0 | 0.00 | 0.00 | 0.00 | 94 | 1011.9 |
| 20260507120041 | 73 | 360 | 1.0 | 3.0 | 0.00 | 0.00 | 0.00 | 95 | 1011.8 |
| 20260507114539 | 73 | 360 | 0.0 | 3.0 | 0.00 | 0.00 | 0.00 | 96 | 1011.7 |
| 20260507113037 | 72 | 0 | 0.0 | 0.0 | 0.00 | 0.00 | 0.00 | 96 | 1011.4 |
| 20260507111542 | 71 | 0 | 0.0 | 0.0 | 0.00 | 0.00 | 0.00 | 96 | 1011.4 |
| 20260507110043 | 70 | 0 | 0.0 | 0.0 | 0.00 | 0.00 | 0.00 | 95 | 1011.4 |
| 20260507104540 | 70 | 0 | 0.0 | 0.0 | 0.00 | 0.00 | 0.00 | 95 | 1011.5 |
| 20260507103039 | 70 | 0 | 0.0 | 0.0 | 0.00 | 0.00 | 0.00 | 95 | 1011.3 |
| 20260507101542 | 70 | 0 | 0.0 | 0.0 | 0.00 | 0.00 | 0.00 | 95 | 1011.2 |
| 20260507100053 | 70 | 0 | 0.0 | 0.0 | 0.00 | 0.00 | 0.00 | 95 | 1011.3 |
| 20260507094541 | 70 | 0 | 0.0 | 0.0 | 0.00 | 0.00 | 0.00 | 95 | 1011.0 |
| 20260507093039 | 71 | 0 | 0.0 | 0.0 | 0.00 | 0.00 | 0.00 | 95 | 1010.9 |
| 20260507091537 | 71 | 0 | 0.0 | 0.0 | 0.00 | 0.00 | 0.00 | 95 | 1010.9 |
| 20260507090036 | 71 | 0 | 0.0 | 0.0 | 0.00 | 0.00 | 0.00 | 95 | 1011.0 |
| 20260507084547 | 71 | 0 | 0.0 | 0.0 | 0.00 | 0.00 | 0.00 | 95 | 1010.8 |
| 20260507083057 | 71 | 0 | 0.0 | 0.0 | 0.00 | 0.00 | 0.00 | 94 | 1010.7 |
| 20260507081545 | 71 | 0 | 0.0 | 0.0 | 0.00 | 0.00 | 0.00 | 94 | 1010.3 |
| 20260507080042 | 71 | 0 | 0.0 | 0.0 | 0.00 | 0.00 | 0.00 | 94 | 1010.2 |
| 20260507074540 | 71 | 0 | 0.0 | 0.0 | 0.00 | 0.00 | 0.00 | 94 | 1010.6 |
| 20260507073052 | 72 | 0 | 0.0 | 0.0 | 0.00 | 0.00 | 0.00 | 94 | 1010.7 |
| 20260507071543 | 72 | 0 | 0.0 | 0.0 | 0.00 | 0.00 | 0.00 | 94 | 1010.7 |
| 20260507070043 | 72 | 0 | 0.0 | 0.0 | 0.00 | 0.00 | 0.00 | 94 | 1010.9 |
| 20260507064541 | 72 | 0 | 0.0 | 0.0 | 0.00 | 0.00 | 0.00 | 94 | 1011.1 |
| 20260507063047 | 72 | 0 | 0.0 | 0.0 | 0.00 | 0.00 | 0.00 | 93 | 1011.2 |
| 20260507061544 | 72 | 0 | 0.0 | 0.0 | 0.00 | 0.00 | 0.00 | 93 | 1011.4 |
| 20260507060041 | 73 | 0 | 0.0 | 0.0 | 0.00 | 0.00 | 0.00 | 93 | 1011.4 |
| 20260507054541 | 73 | 0 | 0.0 | 0.0 | 0.00 | 0.00 | 0.00 | 93 | 1011.5 |
| 20260507053040 | 73 | 0 | 0.0 | 0.0 | 0.00 | 0.00 | 0.00 | 93 | 1011.5 |
| 20260507051542 | 73 | 0 | 0.0 | 0.0 | 0.00 | 0.00 | 0.00 | 93 | 1011.7 |
| 20260507050047 | 73 | 0 | 0.0 | 0.0 | 0.00 | 0.00 | 0.00 | 93 | 1012.0 |
| 20260507044541 | 74 | 0 | 0.0 | 0.0 | 0.00 | 0.00 | 0.00 | 92 | 1012.4 |
| 20260507043043 | 74 | 0 | 0.0 | 0.0 | 0.00 | 0.00 | 0.00 | 92 | 1012.4 |
| 20260507041548 | 74 | 0 | 0.0 | 0.0 | 0.00 | 0.00 | 0.00 | 92 | 1012.4 |
| 20260507040040 | 74 | 0 | 0.0 | 0.0 | 0.00 | 0.00 | 0.00 | 92 | 1012.4 |
| 20260507034545 | 75 | 0 | 0.0 | 0.0 | 0.00 | 0.00 | 0.00 | 91 | 1012.3 |
| 20260507033043 | 75 | 0 | 0.0 | 0.0 | 0.00 | 0.00 | 0.00 | 91 | 1012.1 |
| 20260507031538 | 75 | 0 | 0.0 | 0.0 | 0.00 | 0.00 | 0.00 | 91 | 1012.2 |
| 20260507030039 | 75 | 0 | 0.0 | 3.0 | 0.00 | 0.00 | 0.00 | 91 | 1012.2 |
| 20260507024538 | 75 | 0 | 0.0 | 3.0 | 0.00 | 0.00 | 0.00 | 91 | 1012.1 |
| 20260507023040 | 76 | 0 | 0.0 | 3.0 | 0.00 | 0.00 | 0.00 | 90 | 1012.0 |
| 20260507021544 | 76 | 360 | 1.0 | 4.0 | 0.00 | 0.00 | 0.00 | 90 | 1011.9 |
| 20260507020100 | 76 | 0 | 0.0 | 5.0 | 0.00 | 0.00 | 0.00 | 90 | 1011.9 |
| 20260507014549 | 76 | 0 | 0.0 | 4.0 | 0.00 | 0.00 | 0.00 | 90 | 1011.8 |
| 20260507013046 | 76 | 360 | 1.0 | 4.0 | 0.00 | 0.00 | 0.00 | 90 | 1011.7 |
| 20260507011537 | 76 | 0 | 0.0 | 4.0 | 0.00 | 0.00 | 0.00 | 90 | 1011.8 |
| 20260507010042 | 76 | 360 | 0.0 | 4.0 | 0.00 | 0.00 | 0.00 | 89 | 1011.9 |
| 20260507004545 | 76 | 360 | 1.0 | 5.0 | 0.00 | 0.00 | 0.00 | 89 | 1011.8 |
| 20260507003038 | 77 | 360 | 2.0 | 8.0 | 0.00 | 0.00 | 0.00 | 89 | 1011.8 |
| 20260507001542 | 77 | 360 | 1.0 | 9.0 | 0.00 | 0.00 | 0.00 | 88 | 1011.7 |
| 20260507000038 | 77 | 360 | 1.0 | 5.0 | 0.00 | 0.00 | 0.00 | 88 | 1011.7 |
| 20260506234543 | 78 | 360 | 1.0 | 6.0 | 0.00 | 0.00 | 0.00 | 87 | 1011.7 |
| 20260506233043 | 78 | 360 | 1.0 | 6.0 | 0.00 | 0.00 | 0.00 | 86 | 1011.7 |
| 20260506231549 | 79 | 238 | 1.0 | 6.0 | 0.00 | 0.00 | 0.00 | 85 | 1011.7 |
| 20260506230053 | 79 | 0 | 2.0 | 9.0 | 0.00 | 0.00 | 0.00 | 84 | 1011.6 |
| 20260506224538 | 80 | 266 | 1.0 | 9.0 | 0.00 | 0.00 | 0.00 | 82 | 1011.7 |
| 20260506223052 | 82 | 0 | 0.0 | 7.0 | 0.00 | 0.00 | 0.00 | 79 | 1011.6 |
| 20260506221542 | 82 | 254 | 2.0 | 7.0 | 0.00 | 0.00 | 0.00 | 78 | 1011.6 |
| 20260506220043 | 83 | 0 | 1.0 | 7.0 | 0.00 | 0.00 | 0.00 | 77 | 1011.7 |
| 20260506214541 | 83 | 299 | 2.0 | 9.0 | 0.00 | 0.00 | 0.00 | 77 | 1011.8 |
| 20260506213054 | 83 | 244 | 1.0 | 7.0 | 0.00 | 0.00 | 0.00 | 75 | 1011.8 |
| 20260506211548 | 83 | 238 | 4.0 | 10.0 | 0.00 | 0.00 | 0.00 | 76 | 1011.7 |
| 20260506210037 | 83 | 263 | 1.0 | 8.0 | 0.00 | 0.00 | 0.00 | 77 | 1011.6 |
| 20260506204549 | 83 | 282 | 3.0 | 9.0 | 0.00 | 0.00 | 0.00 | 78 | 1011.8 |
| 20260506203047 | 82 | 267 | 4.0 | 9.0 | 0.00 | 0.00 | 0.00 | 79 | 1011.9 |
| 20260506201554 | 82 | 245 | 4.0 | 10.0 | 0.00 | 0.00 | 0.00 | 79 | 1011.9 |
| 20260506200040 | 83 | 264 | 2.0 | 7.0 | 0.00 | 0.00 | 0.00 | 79 | 1012.0 |